カタログに戻る

SJ-23

運用中科学GEO
NORAD 55131·PAYLOAD·🇨🇳 China

打ち上げ Jan 8, 2023 から Wenchang Space Launch Site

Loading…

TLE

最新Source: Space-Track

元期: Sep 13, 2026, 16:51 UTC

1 55131U 23002A   26256.70253162 -.00000090  00000-0  00000+0 0  9998
2 55131   3.9392  77.1499 0002965 230.4773  18.0889  1.00024594 13393

AllMySatでSJ-23をリアルタイム追跡

Download on the App Store